Tracking 31027 objects as of 19-Jul-2025
HD Live streaming from Space Station
objects crossing your sky now

FENGYUN 1C DEB

Track FENGYUN 1C DEB now!
10-day predictions


NORAD ID: 30575
Int'l Code: 1999-025ALR
Perigee: 730.7 km
Apogee: 807.3 km
Inclination: 99.2 °
Period: 100.1 minutes
Semi major axis: 7140 km
RCS: 0.029 m2 (small)
Launch date: May 10, 1999
Source: People's Republic of China (PRC)
Launch site: Taiyaun Space Center, China (TSC)

Note: This is SATELLITE DEBRIS
Your satellite tracking list
ONEWEB-0142
Track 1 satellite(s)




NASA's NSSDC Master Catalog

Two Line Element Set (TLE):
1 30575U 99025ALR 25199.21052773  .00001396  00000-0  46090-3 0  9999
2 30575  99.1764 279.8637 0053641 310.4017 104.5066 14.38981932960954
Source of the keplerian elements: AFSPC